GSAT0221 (GALILEO 25)

Last updated on Wed Jul 09 2025 00:02:32 GMT+0000 (Coordinated Universal Time)

1 43564U 18060A 25188.15311467 -.00000083 00000+0 00000+0 0 9999 2 43564 57.2657 351.0957 0002419 287.3767 72.6003 1.70476184 43285
UTC large
Height (km)
Speed (km/s)
/
Latitude / Longitude
Inclination (degrees)
Orbital Period (minutes)
Azimuth
Elevation
Range (km)
Doppler Factor

Next 0 passes for location: London (51.5072 / 0.1276)

Sorry there are no passes over London.